Home   Weather   Antioch   Past weeks

Flag for USA Past Weather in Antioch, California, USA — Yesterday and Last 2 Weeks

Now
77 °F

Sunny.


Feels Like: 77 °F
Forecast: 51 / 81 °F
Wind: 16 mph from North

Location: Buchanan Field

Current Time: Apr 28, 2017 at 5:13:53 pm

Latest Report: Apr 28, 2017 at 3:53 pm


Visibility: 10 mi

Pressure: 29.95 "Hg

Humidity: 18%

Dew Point: 30 °F

Location of AntiochLocation

Past Weather in Antioch — Graph

°F

Antioch Temperature Yesterday

Maximum temperature yesterday: 74 °F (at 2:53 pm)
Minimum temperature yesterday: 52 °F (at 4:53 am)
Average temperature yesterday: 61 °F

High & Low Weather Summary for the Past Weeks

 TemperatureHumidityPressure
High78 °F (Apr 21, 3:53 pm)100% (Apr 17, 2:17 am)30.29 "Hg (Apr 17, 2:17 am)
Low42 °F (Apr 14, 6:53 am)17% (Apr 28, 2:53 pm)29.86 "Hg (Apr 16, 5:53 am)
Average59 °F69%30.04 "Hg
* Reported Apr 13 3:53 pm — Apr 28 3:53 pm, Antioch, Weather by CustomWeather, © 2017

Note: Actual official high and low records may vary slightly from our data, if they occured in-between our weather recording intervals... More about our weather records

Advertising

Antioch Weather History for the Previous 24 Hours

Scroll right to see more
 ConditionsComfort  
Time TempWeatherWind HumidityBarometerVisibility
3:53 pm
Fri, Apr 28
77 °FSunny.16 mph18%29.95 "Hg10 mi
2:53 pm76 °FSunny.17 mph17%29.97 "Hg10 mi
1:53 pm75 °FPassing clouds.8 mph22%29.99 "Hg10 mi
12:53 pm73 °FSunny.7 mph26%30.00 "Hg10 mi
11:53 am70 °FSunny.8 mph35%30.02 "Hg10 mi
10:53 am68 °FScattered clouds.6 mph36%30.02 "Hg10 mi
9:53 am65 °FSunny.10 mph37%30.03 "Hg10 mi
8:53 am60 °FSunny.No wind56%30.03 "Hg10 mi
7:53 am55 °FSunny.5 mph69%30.02 "Hg10 mi
6:53 am49 °FSunny.7 mph80%30.00 "Hg10 mi
5:53 am49 °FClear.No wind80%29.99 "Hg10 mi
4:53 am49 °FClear.3 mph80%29.98 "Hg10 mi
3:53 am51 °FClear.5 mph74%29.98 "Hg10 mi
2:53 am54 °FClear.5 mph67%29.98 "Hg10 mi
1:53 am55 °FClear.7 mph64%29.98 "Hg10 mi
12:53 am56 °FClear.7 mph62%29.98 "Hg10 mi
11:53 pm
Thu, Apr 27
57 °FClear.8 mph60%29.98 "Hg10 mi
10:53 pm58 °FClear.3 mph58%29.96 "Hg10 mi
9:53 pm59 °FClear.9 mph58%29.95 "Hg10 mi
8:53 pm61 °FClear.3 mph52%29.95 "Hg10 mi
7:53 pm63 °FSunny.9 mph50%29.93 "Hg10 mi
6:53 pm67 °FSunny.14 mph44%29.93 "Hg10 mi
5:53 pm70 °FSunny.17 mph38%29.92 "Hg10 mi
Weather by CustomWeather, © 2017

See weather overviewHow to use our weather pages